"TOA5","C150","CR1000","43625","CR1000.Std.22","CPU:247411_r6_eppley2.CR1","44759","eppley_data"
"TIMESTAMP","RECORD","PIR_net","Case_Temp_K","PSP_in_Avg","PSP_in_Min","PSP_in_Max","PIR_in_Avg","PIR_in_Min","PIR_in_Max","wd_2minavg","ws_2minavg","AirTC","RH","BP_mbar"
"TS","RN","","","","","","","","","","","Deg C","Percent","Millibar"
"","","Smp","Smp","Avg","Min","Max","Avg","Min","Max","Smp","Smp","Smp","Smp","Smp"
"2015-05-05 16:10:00",69994,"NAN","NAN","NAN","NAN","NAN","NAN","NAN","NAN",333,2.93,-31.04,71.25,991
"2015-05-05 16:20:00",69995,"NAN","NAN","NAN","NAN","NAN","NAN","NAN","NAN",329.7,2.405,-31.46,72.31,991
"2015-05-05 16:30:00",69996,"NAN","NAN","NAN","NAN","NAN","NAN","NAN","NAN",324.1,2.349,-31.42,71.76,992
"2015-05-05 16:40:00",69997,"NAN","NAN","NAN","NAN","NAN","NAN","NAN","NAN",319.7,2.452,-31.46,72.82,992
"2015-05-05 16:50:00",69998,"NAN","NAN","NAN","NAN","NAN","NAN","NAN","NAN",310.4,1.996,-31.9,70.53,992
"2015-05-05 17:00:00",69999,"NAN","NAN","NAN","NAN","NAN","NAN","NAN","NAN",313.7,2.319,-31.93,70.87,992
"TOA5","C150","CR1000","43625","CR1000.Std.22","CPU:247411_r6_eppley2.CR1","44759","eppley_data"
"TIMESTAMP","RECORD","PIR_net","Case_Temp_K","PSP_in_Avg","PSP_in_Min","PSP_in_Max","PIR_in_Avg","PIR_in_Min","PIR_in_Max","wd_2minavg","ws_2minavg","AirTC","RH","BP_mbar"
"TS","RN","","","","","","","","","","","Deg C","Percent","Millibar"
"","","Smp","Smp","Avg","Min","Max","Avg","Min","Max","Smp","Smp","Smp","Smp","Smp"
"2015-05-05 16:10:00",69994,"NAN","NAN","NAN","NAN","NAN","NAN","NAN","NAN",333,2.93,-31.04,71.25,991
"2015-05-05 16:20:00",69995,"NAN","NAN","NAN","NAN","NAN","NAN","NAN","NAN",329.7,2.405,-31.46,72.31,991
"2015-05-05 16:30:00",69996,"NAN","NAN","NAN","NAN","NAN","NAN","NAN","NAN",324.1,2.349,-31.42,71.76,992
"2015-05-05 16:40:00",69997,"NAN","NAN","NAN","NAN","NAN","NAN","NAN","NAN",319.7,2.452,-31.46,72.82,992
"2015-05-05 16:50:00",69998,"NAN","NAN","NAN","NAN","NAN","NAN","NAN","NAN",310.4,1.996,-31.9,70.53,992
"2015-05-05 17:00:00",69999,"NAN","NAN","NAN","NAN","NAN","NAN","NAN","NAN",313.7,2.319,-31.93,70.87,992
"2015-05-05 17:10:00",70000,"NAN","NAN","NAN","NAN","NAN","NAN","NAN","NAN",316.9,1.882,-31.87,72.07,992
"2015-05-05 17:20:00",70001,"NAN","NAN","NAN","NAN","NAN","NAN","NAN","NAN",302.2,1.82,-31.73,70.43,992
"2015-05-05 17:30:00",70002,"NAN","NAN","NAN","NAN","NAN","NAN","NAN","NAN",314.8,2.176,-31.66,72.69,992
"2015-05-05 17:40:00",70003,"NAN","NAN","NAN","NAN","NAN","NAN","NAN","NAN",301.3,2.06,-32.14,69.4,992
"2015-05-05 17:50:00",70004,"NAN","NAN","NAN","NAN","NAN","NAN","NAN","NAN",318.6,1.285,-32.24,71.05,992
"2015-05-05 18:00:00",70005,"NAN","NAN","NAN","NAN","NAN","NAN","NAN","NAN",314.4,1.446,-32.17,70.68,992
"2015-05-05 18:10:00",70006,"NAN","NAN","NAN","NAN","NAN","NAN","NAN","NAN",302.7,1.379,-32.38,70.75,992
"2015-05-05 18:20:00",70007,"NAN","NAN","NAN","NAN","NAN","NAN","NAN","NAN",304.4,1.596,-32.55,70.58,992
"2015-05-05 18:30:00",70008,"NAN","NAN","NAN","NAN","NAN","NAN","NAN","NAN",310.2,1.637,-33.2,69.99,992
"2015-05-05 18:40:00",70009,"NAN","NAN","NAN","NAN","NAN","NAN","NAN","NAN",315.1,1.654,-32.52,71.09,992
"2015-05-05 18:50:00",70010,"NAN","NAN","NAN","NAN","NAN","NAN","NAN","NAN",315.8,1.833,-32.48,71.27,992
"2015-05-05 19:00:00",70011,"NAN","NAN","NAN","NAN","NAN","NAN","NAN","NAN",260.4,1.237,-33.44,70.35,992
"2015-05-05 19:10:00",70012,"NAN","NAN","NAN","NAN","NAN","NAN","NAN","NAN",303.7,0.661,-33.37,69.97,992
"2015-05-05 19:20:00",70013,"NAN","NAN","NAN","NAN","NAN","NAN","NAN","NAN",0,0,-33.27,70.08,992
"2015-05-05 19:30:00",70014,"NAN","NAN","NAN","NAN","NAN","NAN","NAN","NAN",345.3,0.849,-32.41,71.99,992
"2015-05-05 19:40:00",70015,"NAN","NAN","NAN","NAN","NAN","NAN","NAN","NAN",316.2,1.224,-32.38,70.52,992
"2015-05-05 19:50:00",70016,"NAN","NAN","NAN","NAN","NAN","NAN","NAN","NAN",311.5,1.376,-32.93,70.38,992
"2015-05-05 20:00:00",70017,"NAN","NAN","NAN","NAN","NAN","NAN","NAN","NAN",319.3,1.867,-32.38,71.86,992
"2015-05-05 20:10:00",70018,"NAN","NAN","NAN","NAN","NAN","NAN","NAN","NAN",340.3,2.385,-31.76,73.33,992
"2015-05-05 20:20:00",70019,"NAN","NAN","NAN","NAN","NAN","NAN","NAN","NAN",335.6,3.452,-31.35,72.13,992
"2015-05-05 20:30:00",70020,"NAN","NAN","NAN","NAN","NAN","NAN","NAN","NAN",329.2,2.903,-31.28,71.78,992
"2015-05-05 20:40:00",70021,"NAN","NAN","NAN","NAN","NAN","NAN","NAN","NAN",333.2,2.686,-31.21,72.6,992
"2015-05-05 20:50:00",70022,"NAN","NAN","NAN","NAN","NAN","NAN","NAN","NAN",329.1,2.673,-31.87,70.88,992
"2015-05-05 21:00:00",70023,"NAN","NAN","NAN","NAN","NAN","NAN","NAN","NAN",332.9,2.977,-31.69,71.7,992
"2015-05-05 21:10:00",70024,"NAN","NAN","NAN","NAN","NAN","NAN","NAN","NAN",334.4,2.948,-31.66,72.04,992
"2015-05-05 21:20:00",70025,"NAN","NAN","NAN","NAN","NAN","NAN","NAN","NAN",336.2,3.034,-31.28,72.31,992
"2015-05-05 21:30:00",70026,"NAN","NAN","NAN","NAN","NAN","NAN","NAN","NAN",341.1,2.301,-31.39,72.14,992
"2015-05-05 21:40:00",70027,"NAN","NAN","NAN","NAN","NAN","NAN","NAN","NAN",328.2,1.905,-31.73,70.74,992
"2015-05-05 21:50:00",70028,"NAN","NAN","NAN","NAN","NAN","NAN","NAN","NAN",336.4,1.903,-31.56,72.17,992
"2015-05-05 22:00:00",70029,"NAN","NAN","NAN","NAN","NAN","NAN","NAN","NAN",333.1,2.496,-31.76,71.52,992
"2015-05-05 22:10:00",70030,"NAN","NAN","NAN","NAN","NAN","NAN","NAN","NAN",343.4,1.892,-31.15,72.62,992
"2015-05-05 22:20:00",70031,"NAN","NAN","NAN","NAN","NAN","NAN","NAN","NAN",341.7,1.604,-31.32,71.87,992
"2015-05-05 22:30:00",70032,"NAN","NAN","NAN","NAN","NAN","NAN","NAN","NAN",336.4,1.549,-31.35,71.9,992
"2015-05-05 22:40:00",70033,"NAN","NAN","NAN","NAN","NAN","NAN","NAN","NAN",332,1.96,-31.11,72.55,992
"2015-05-05 22:50:00",70034,"NAN","NAN","NAN","NAN","NAN","NAN","NAN","NAN",335.7,2.528,-31.28,71.39,992
"2015-05-05 23:00:00",70035,"NAN","NAN","NAN","NAN","NAN","NAN","NAN","NAN",336.6,2.016,-31.83,70.43,992
"2015-05-05 23:10:00",70036,"NAN","NAN","NAN","NAN","NAN","NAN","NAN","NAN",308.1,0.969,-31.97,72.96,992
"2015-05-05 23:20:00",70037,"NAN","NAN","NAN","NAN","NAN","NAN","NAN","NAN",323.9,1.569,-31.56,70.15,992
"2015-05-05 23:30:00",70038,"NAN","NAN","NAN","NAN","NAN","NAN","NAN","NAN",308.4,1.304,-31.56,70.77,992
"2015-05-05 23:40:00",70039,"NAN","NAN","NAN","NAN","NAN","NAN","NAN","NAN",320.4,1.86,-31.52,71.56,992
"2015-05-05 23:50:00",70040,"NAN","NAN","NAN","NAN","NAN","NAN","NAN","NAN",318.3,2.497,-31.15,70.67,992
"2015-05-06 00:00:00",70041,"NAN","NAN","NAN","NAN","NAN","NAN","NAN","NAN",321,2.356,-31.49,71.97,992
"2015-05-06 00:10:00",70042,"NAN","NAN","NAN","NAN","NAN","NAN","NAN","NAN",323.3,2.456,-31.08,72.89,992
"2015-05-06 00:20:00",70043,"NAN","NAN","NAN","NAN","NAN","NAN","NAN","NAN",279.9,1.671,-31.39,73.54,992
"2015-05-06 00:30:00",70044,"NAN","NAN","NAN","NAN","NAN","NAN","NAN","NAN",299.2,2.133,-31.83,71.39,992
"2015-05-06 00:40:00",70045,"NAN","NAN","NAN","NAN","NAN","NAN","NAN","NAN",302.2,1.85,-32.24,70.98,992
"2015-05-06 00:50:00",70046,"NAN","NAN","NAN","NAN","NAN","NAN","NAN","NAN",281.9,2.269,-31.42,73.13,992
"2015-05-06 01:00:00",70047,"NAN","NAN","NAN","NAN","NAN","NAN","NAN","NAN",285.2,2.555,-31.76,69.47,992
"2015-05-06 01:10:00",70048,"NAN","NAN","NAN","NAN","NAN","NAN","NAN","NAN",244,2.643,-32.28,74.06,992
"2015-05-06 01:20:00",70049,"NAN","NAN","NAN","NAN","NAN","NAN","NAN","NAN",268.5,1.728,-32.55,68.82,992
"2015-05-06 01:30:00",70050,"NAN","NAN","NAN","NAN","NAN","NAN","NAN","NAN",224.9,2.174,-33.24,69.4,992
"2015-05-06 01:40:00",70051,"NAN","NAN","NAN","NAN","NAN","NAN","NAN","NAN",272.4,0.635,-33.3,70.19,992
"2015-05-06 01:50:00",70052,"NAN","NAN","NAN","NAN","NAN","NAN","NAN","NAN",235.1,2.063,-31.32,75.88,992
"2015-05-06 02:00:00",70053,"NAN","NAN","NAN","NAN","NAN","NAN","NAN","NAN",221.9,1.301,-31.76,71.08,992
"2015-05-06 02:10:00",70054,"NAN","NAN","NAN","NAN","NAN","NAN","NAN","NAN",201,2.168,-31.76,72.55,992
"2015-05-06 02:20:00",70055,"NAN","NAN","NAN","NAN","NAN","NAN","NAN","NAN",181.9,1.725,-32.21,72.79,992
"2015-05-06 02:30:00",70056,"NAN","NAN","NAN","NAN","NAN","NAN","NAN","NAN",206.9,1.678,-31.01,78.58,992
"2015-05-06 02:40:00",70057,"NAN","NAN","NAN","NAN","NAN","NAN","NAN","NAN",224.8,1.724,-31.7,74.91,992
"2015-05-06 02:50:00",70058,"NAN","NAN","NAN","NAN","NAN","NAN","NAN","NAN",207.8,2.458,-32.89,71.28,992
"2015-05-06 03:00:00",70059,"NAN","NAN","NAN","NAN","NAN","NAN","NAN","NAN",214.6,2.254,-32.14,69.47,992
"2015-05-06 03:10:00",70060,"NAN","NAN","NAN","NAN","NAN","NAN","NAN","NAN",196.9,1.804,-32.59,69.43,992
"2015-05-06 03:20:00",70061,"NAN","NAN","NAN","NAN","NAN","NAN","NAN","NAN",179.3,2.063,-33.72,68.44,992
"2015-05-06 03:30:00",70062,"NAN","NAN","NAN","NAN","NAN","NAN","NAN","NAN",181,2.519,-33.58,67.97,992
"2015-05-06 03:40:00",70063,"NAN","NAN","NAN","NAN","NAN","NAN","NAN","NAN",162.3,2.035,-33.3,69.41,992
"2015-05-06 03:50:00",70064,"NAN","NAN","NAN","NAN","NAN","NAN","NAN","NAN",162.6,2.749,-31.08,78.45,992
"2015-05-06 04:00:00",70065,"NAN","NAN","NAN","NAN","NAN","NAN","NAN","NAN",173,2.427,-30.56,71.74,992
"2015-05-06 04:10:00",70066,"NAN","NAN","NAN","NAN","NAN","NAN","NAN","NAN",180.9,2.051,-30.67,78.22,992
"2015-05-06 04:20:00",70067,"NAN","NAN","NAN","NAN","NAN","NAN","NAN","NAN",198.3,1.355,-26.83,79.31,992
"2015-05-06 04:30:00",70068,"NAN","NAN","NAN","NAN","NAN","NAN","NAN","NAN",268.7,1.658,-25.43,78.24,992
"2015-05-06 04:40:00",70069,"NAN","NAN","NAN","NAN","NAN","NAN","NAN","NAN",321.8,0.202,-26.7,75.22,992
"2015-05-06 04:50:00",70070,"NAN","NAN","NAN","NAN","NAN","NAN","NAN","NAN",99.2,0.069,-28.58,70.94,992
"2015-05-06 05:00:00",70071,"NAN","NAN","NAN","NAN","NAN","NAN","NAN","NAN",106.3,1.361,-31.25,73.67,992
"2015-05-06 05:10:00",70072,"NAN","NAN","NAN","NAN","NAN","NAN","NAN","NAN",83.3,0.501,-30.94,67.36,992
"2015-05-06 05:20:00",70073,"NAN","NAN","NAN","NAN","NAN","NAN","NAN","NAN",153.4,0.68,-31.73,71.95,992
"2015-05-06 05:30:00",70074,"NAN","NAN","NAN","NAN","NAN","NAN","NAN","NAN",120.2,2.352,-32.25,71.02,992
"2015-05-06 05:40:00",70075,"NAN","NAN","NAN","NAN","NAN","NAN","NAN","NAN",97.4,2.44,-31.7,71.98,992
"2015-05-06 05:50:00",70076,"NAN","NAN","NAN","NAN","NAN","NAN","NAN","NAN",79.91,1.833,-31.7,71.51,992
"2015-05-06 06:00:00",70077,"NAN","NAN","NAN","NAN","NAN","NAN","NAN","NAN",83.6,1.865,-31.83,71.72,992
"2015-05-06 06:10:00",70078,"NAN","NAN","NAN","NAN","NAN","NAN","NAN","NAN",84.4,1.77,-32,71,992
"2015-05-06 06:20:00",70079,"NAN","NAN","NAN","NAN","NAN","NAN","NAN","NAN",106,1.447,-31.97,71.37,992
"2015-05-06 06:30:00",70080,"NAN","NAN","NAN","NAN","NAN","NAN","NAN","NAN",106.9,0.9,-32.07,71.92,992
"2015-05-06 06:40:00",70081,"NAN","NAN","NAN","NAN","NAN","NAN","NAN","NAN",99.3,2.358,-32,72.03,992
"2015-05-06 06:50:00",70082,"NAN","NAN","NAN","NAN","NAN","NAN","NAN","NAN",107.4,2.471,-32.21,71.2,992
"2015-05-06 07:00:00",70083,"NAN","NAN","NAN","NAN","NAN","NAN","NAN","NAN",111,3.722,-31.87,72.68,992
"2015-05-06 07:10:00",70084,"NAN","NAN","NAN","NAN","NAN","NAN","NAN","NAN",115.1,1.76,-31.63,71.2,992
"2015-05-06 07:20:00",70085,"NAN","NAN","NAN","NAN","NAN","NAN","NAN","NAN",120.8,2.561,-30.91,72.85,992
"2015-05-06 07:30:00",70086,"NAN","NAN","NAN","NAN","NAN","NAN","NAN","NAN",140.7,1.879,-30.22,71.85,992
"2015-05-06 07:40:00",70087,"NAN","NAN","NAN","NAN","NAN","NAN","NAN","NAN",196.6,1.802,-29.61,71.44,992
"2015-05-06 07:50:00",70088,"NAN","NAN","NAN","NAN","NAN","NAN","NAN","NAN",110.9,2.417,-28.27,74.11,992
"2015-05-06 08:00:00",70089,"NAN","NAN","NAN","NAN","NAN","NAN","NAN","NAN",192.2,2.157,-27.11,78.28,993
"2015-05-06 08:10:00",70090,"NAN","NAN","NAN","NAN","NAN","NAN","NAN","NAN",153.1,2.415,-25.81,79.58,993
"2015-05-06 08:20:00",70091,"NAN","NAN","NAN","NAN","NAN","NAN","NAN","NAN",151.3,2.066,-23.01,80,993
"2015-05-06 08:30:00",70092,"NAN","NAN","NAN","NAN","NAN","NAN","NAN","NAN",195.9,1.726,-21.06,83.5,993
"2015-05-06 08:40:00",70093,"NAN","NAN","NAN","NAN","NAN","NAN","NAN","NAN",124.1,2.549,-22.09,80,993
"2015-05-06 08:50:00",70094,"NAN","NAN","NAN","NAN","NAN","NAN","NAN","NAN",126.1,3.166,-20.11,91.2,993
"2015-05-06 09:00:00",70095,"NAN","NAN","NAN","NAN","NAN","NAN","NAN","NAN",168.8,7.719,-16.25,74.92,993
"2015-05-06 09:10:00",70096,"NAN","NAN","NAN","NAN","NAN","NAN","NAN","NAN",170.4,6.318,-16.39,68.47,993
"2015-05-06 09:20:00",70097,"NAN","NAN","NAN","NAN","NAN","NAN","NAN","NAN",168.3,6.373,-14.48,70.99,993
"2015-05-06 09:30:00",70098,"NAN","NAN","NAN","NAN","NAN","NAN","NAN","NAN",189.3,13.71,-13.15,61.91,993
"2015-05-06 09:40:00",70099,"NAN","NAN","NAN","NAN","NAN","NAN","NAN","NAN",191.8,11.08,-12.99,48.5,993
"2015-05-06 09:50:00",70100,"NAN","NAN","NAN","NAN","NAN","NAN","NAN","NAN",185.7,13.55,-12.31,39.58,993
"2015-05-06 10:00:00",70101,"NAN","NAN","NAN","NAN","NAN","NAN","NAN","NAN",177.9,12.71,-12.11,46.16,993
"2015-05-06 10:10:00",70102,"NAN","NAN","NAN","NAN","NAN","NAN","NAN","NAN",186,13,-12.25,57.63,993
"2015-05-06 10:20:00",70103,"NAN","NAN","NAN","NAN","NAN","NAN","NAN","NAN",179.3,12.02,-13.55,67.49,993
"2015-05-06 10:30:00",70104,"NAN","NAN","NAN","NAN","NAN","NAN","NAN","NAN",184.9,13.03,-13.39,62.33,994
"2015-05-06 10:40:00",70105,"NAN","NAN","NAN","NAN","NAN","NAN","NAN","NAN",187.9,13.2,-13.66,63.18,994
"2015-05-06 10:50:00",70106,"NAN","NAN","NAN","NAN","NAN","NAN","NAN","NAN",192.1,10.33,-14.31,69.15,994
"2015-05-06 11:00:00",70107,"NAN","NAN","NAN","NAN","NAN","NAN","NAN","NAN",183.9,9.1,-14.58,64.92,994
"2015-05-06 11:10:00",70108,"NAN","NAN","NAN","NAN","NAN","NAN","NAN","NAN",182.4,9.3,-12.84,55.87,994
"2015-05-06 11:20:00",70109,"NAN","NAN","NAN","NAN","NAN","NAN","NAN","NAN",172.2,6.478,-13.42,57.2,994
"2015-05-06 11:30:00",70110,"NAN","NAN","NAN","NAN","NAN","NAN","NAN","NAN",151.4,6.668,-12.19,47.37,995
"2015-05-06 11:40:00",70111,"NAN","NAN","NAN","NAN","NAN","NAN","NAN","NAN",156.1,8.14,-12.06,48.26,995
"2015-05-06 11:50:00",70112,"NAN","NAN","NAN","NAN","NAN","NAN","NAN","NAN",123,6.87,-12.6,52.01,995
"2015-05-06 12:00:00",70113,"NAN","NAN","NAN","NAN","NAN","NAN","NAN","NAN",131.7,6.372,-13.8,59.24,995
"2015-05-06 12:10:00",70114,"NAN","NAN","NAN","NAN","NAN","NAN","NAN","NAN",157,8.16,-13.09,59.75,995
"2015-05-06 12:20:00",70115,"NAN","NAN","NAN","NAN","NAN","NAN","NAN","NAN",159.8,8.71,-12.06,56.03,995
"2015-05-06 12:30:00",70116,"NAN","NAN","NAN","NAN","NAN","NAN","NAN","NAN",172.9,9.75,-11.11,51.11,995
"2015-05-06 12:40:00",70117,"NAN","NAN","NAN","NAN","NAN","NAN","NAN","NAN",166.5,6.397,-11.62,54.11,995
"2015-05-06 12:50:00",70118,"NAN","NAN","NAN","NAN","NAN","NAN","NAN","NAN",146.8,6.109,-12.92,58.99,995
"2015-05-06 13:00:00",70119,"NAN","NAN","NAN","NAN","NAN","NAN","NAN","NAN",147.9,5.714,-12.61,57.42,995
"2015-05-06 13:10:00",70120,"NAN","NAN","NAN","NAN","NAN","NAN","NAN","NAN",142.2,5.503,-13.05,60.26,995
"2015-05-06 13:20:00",70121,"NAN","NAN","NAN","NAN","NAN","NAN","NAN","NAN",132.8,6.366,-13.02,60.67,995
"2015-05-06 13:30:00",70122,"NAN","NAN","NAN","NAN","NAN","NAN","NAN","NAN",132.6,7.292,-13.22,60.53,995
"2015-05-06 13:40:00",70123,"NAN","NAN","NAN","NAN","NAN","NAN","NAN","NAN",140.3,7.1,-12.88,58.41,995
"2015-05-06 13:50:00",70124,"NAN","NAN","NAN","NAN","NAN","NAN","NAN","NAN",114.3,4.232,-14.9,63.46,995
"2015-05-06 14:00:00",70125,"NAN","NAN","NAN","NAN","NAN","NAN","NAN","NAN",105.7,4.439,-15.85,65.62,995
"2015-05-06 14:10:00",70126,"NAN","NAN","NAN","NAN","NAN","NAN","NAN","NAN",113.6,5.78,-15.51,65.6,995
"2015-05-06 14:20:00",70127,"NAN","NAN","NAN","NAN","NAN","NAN","NAN","NAN",112.9,6.029,-15.27,62.73,995
"2015-05-06 14:30:00",70128,"NAN","NAN","NAN","NAN","NAN","NAN","NAN","NAN",95.3,3.183,-14.58,60.83,995
"2015-05-06 14:40:00",70129,"NAN","NAN","NAN","NAN","NAN","NAN","NAN","NAN",129.2,0.647,-14.99,58.95,995
"2015-05-06 14:50:00",70130,"NAN","NAN","NAN","NAN","NAN","NAN","NAN","NAN",142.9,4.116,-15.4,57.01,995
"2015-05-06 15:00:00",70131,"NAN","NAN","NAN","NAN","NAN","NAN","NAN","NAN",142.3,5.197,-15.05,52.27,995
"2015-05-06 15:10:00",70132,"NAN","NAN","NAN","NAN","NAN","NAN","NAN","NAN",124,3.561,-15.7,53.53,995
"2015-05-06 15:20:00",70133,"NAN","NAN","NAN","NAN","NAN","NAN","NAN","NAN",123.4,2.383,-16.04,55.99,995
"2015-05-06 15:30:00",70134,"NAN","NAN","NAN","NAN","NAN","NAN","NAN","NAN",116.3,2.809,-14.5,52.44,995
"2015-05-06 15:40:00",70135,"NAN","NAN","NAN","NAN","NAN","NAN","NAN","NAN",126.2,3.359,-15.39,54.94,995
"2015-05-06 15:50:00",70136,"NAN","NAN","NAN","NAN","NAN","NAN","NAN","NAN",129.9,4.337,-15.94,56.95,995
"2015-05-06 16:00:00",70137,"NAN","NAN","NAN","NAN","NAN","NAN","NAN","NAN",161.3,7.373,-13.99,51.08,995
"2015-05-06 16:10:00",70138,"NAN","NAN","NAN","NAN","NAN","NAN","NAN","NAN",161.6,6.053,-13.86,50.39,995
"2015-05-06 16:20:00",70139,"NAN","NAN","NAN","NAN","NAN","NAN","NAN","NAN",167.6,5.054,-13.96,50.53,995
"2015-05-06 16:30:00",70140,"NAN","NAN","NAN","NAN","NAN","NAN","NAN","NAN",152.1,3.417,-14.64,51.76,996
"2015-05-06 16:40:00",70141,"NAN","NAN","NAN","NAN","NAN","NAN","NAN","NAN",142.5,4.024,-15.73,56.64,996
"2015-05-06 16:50:00",70142,"NAN","NAN","NAN","NAN","NAN","NAN","NAN","NAN",149.3,4.602,-13.24,49.16,996
"2015-05-06 17:00:00",70143,"NAN","NAN","NAN","NAN","NAN","NAN","NAN","NAN",154.4,7.33,-15.22,54.35,996
"2015-05-06 17:10:00",70144,"NAN","NAN","NAN","NAN","NAN","NAN","NAN","NAN",146.3,6.482,-15.94,56.2,996
"2015-05-06 17:20:00",70145,"NAN","NAN","NAN","NAN","NAN","NAN","NAN","NAN",127,5.882,-16.83,57.43,996
"2015-05-06 17:30:00",70146,"NAN","NAN","NAN","NAN","NAN","NAN","NAN","NAN",122.4,6.221,-16.31,60.98,996
"2015-05-06 17:40:00",70147,"NAN","NAN","NAN","NAN","NAN","NAN","NAN","NAN",107,5.076,-16.49,57.19,996
"2015-05-06 17:50:00",70148,"NAN","NAN","NAN","NAN","NAN","NAN","NAN","NAN",102.7,3.608,-15.6,56.27,996
"2015-05-06 18:00:00",70149,"NAN","NAN","NAN","NAN","NAN","NAN","NAN","NAN",126.4,5.254,-15.36,56.16,996
"2015-05-06 18:10:00",70150,"NAN","NAN","NAN","NAN","NAN","NAN","NAN","NAN",110.9,5.726,-14.91,55.55,996
"2015-05-06 18:20:00",70151,"NAN","NAN","NAN","NAN","NAN","NAN","NAN","NAN",109.6,4.18,-14.71,55.65,996
"2015-05-06 18:30:00",70152,"NAN","NAN","NAN","NAN","NAN","NAN","NAN","NAN",134,6.632,-14.98,58.86,996
"2015-05-06 18:40:00",70153,"NAN","NAN","NAN","NAN","NAN","NAN","NAN","NAN",147.6,6.523,-13.96,55.45,996
"2015-05-06 18:50:00",70154,"NAN","NAN","NAN","NAN","NAN","NAN","NAN","NAN",133.8,5.343,-12.69,51.96,996
"2015-05-06 19:00:00",70155,"NAN","NAN","NAN","NAN","NAN","NAN","NAN","NAN",145.3,5.175,-12.93,51.07,996